EN

Hourly Weather Ambatolampy

Today, 24 January, Sunday

Time Temperature Precipitation Wind Pressure Humidity
00:00 +16°C° 0.9 mm 0 mps 633 mmHg 93%
01:00 +18°C° 0.1 mm 1 mps 633 mmHg 95%
02:00 +16°C° 0.1 mm 1 mps 632 mmHg 96%
03:00 +16°C° 0.1 mm 1 mps 632 mmHg 96%
04:00 +16°C° 0 mm 1 mps 632 mmHg 96%
05:00 +16°C° 0 mm 1 mps 632 mmHg 95%
06:00 +16°C° 0 mm 1 mps 633 mmHg 94%
07:00 +20°C° 0 mm 1 mps 634 mmHg 85%
08:00 +22°C° 0 mm 1 mps 635 mmHg 76%
09:00 +24°C° 0 mm 1 mps 635 mmHg 67%
10:00 +25°C° 0.1 mm 1 mps 635 mmHg 62%
11:00 +26°C° 0.1 mm 2 mps 635 mmHg 58%
12:00 +27°C° 0.1 mm 2 mps 635 mmHg 54%
13:00 +26°C° 0.9 mm 2 mps 634 mmHg 58%
14:00 +26°C° 0.9 mm 2 mps 634 mmHg 63%
15:00 +25°C° 0.9 mm 2 mps 633 mmHg 68%
16:00 +24°C° 0.9 mm 2 mps 633 mmHg 74%
17:00 +23°C° 0.9 mm 2 mps 633 mmHg 80%
18:00 +21°C° 0.9 mm 2 mps 633 mmHg 87%
19:00 +20°C° 1.1 mm 2 mps 633 mmHg 90%
20:00 +20°C° 1.1 mm 1 mps 633 mmHg 92%
21:00 +19°C° 1.1 mm 1 mps 633 mmHg 95%
22:00 +18°C° 0.3 mm 1 mps 633 mmHg 95%
23:00 +16°C° 0.3 mm 0 mps 633 mmHg 95%

Tomorrow, 25 January, Monday

Time Temperature Precipitation Wind Pressure Humidity
00:00 +16°C° 0.3 mm 0 mps 633 mmHg 94%
01:00 +15°C° 0 mm 0 mps 633 mmHg 94%
02:00 +15°C° 0 mm 0 mps 632 mmHg 94%
03:00 +15°C° 0 mm 0 mps 632 mmHg 94%
04:00 +15°C° 0 mm 0 mps 632 mmHg 94%
05:00 +15°C° 0 mm 0 mps 633 mmHg 94%
06:00 +15°C° 0 mm 0 mps 633 mmHg 94%
07:00 +17°C° 0 mm 0 mps 634 mmHg 86%
08:00 +20°C° 0 mm 0 mps 635 mmHg 78%
09:00 +23°C° 0 mm 0 mps 636 mmHg 70%
10:00 +25°C° 0.2 mm 1 mps 636 mmHg 65%
11:00 +26°C° 0.2 mm 1 mps 635 mmHg 60%
12:00 +27°C° 0.2 mm 1 mps 635 mmHg 54%
13:00 +27°C° 0.9 mm 1 mps 635 mmHg 59%
14:00 +26°C° 0.9 mm 1 mps 634 mmHg 63%
15:00 +25°C° 0.9 mm 1 mps 634 mmHg 67%
16:00 +24°C° 1.2 mm 1 mps 633 mmHg 73%
17:00 +23°C° 1.2 mm 1 mps 633 mmHg 79%
18:00 +22°C° 1.2 mm 1 mps 633 mmHg 85%
19:00 +21°C° 0.7 mm 1 mps 633 mmHg 87%
20:00 +20°C° 0.7 mm 1 mps 633 mmHg 90%
21:00 +17°C° 0.7 mm 0 mps 633 mmHg 92%
22:00 +17°C° 0.5 mm 0 mps 633 mmHg 92%
23:00 +16°C° 0.5 mm 0 mps 633 mmHg 92%

Day after tomorrow, 26 January, Tuesday

Time Temperature Precipitation Wind Pressure Humidity
00:00 +16°C° 0.5 mm 0 mps 633 mmHg 92%
01:00 +16°C° 0 mm 0 mps 633 mmHg 92%
02:00 +16°C° 0 mm 0 mps 632 mmHg 93%
03:00 +15°C° 0 mm 0 mps 632 mmHg 93%
04:00 +15°C° 0 mm 0 mps 632 mmHg 93%
05:00 +15°C° 0 mm 0 mps 633 mmHg 93%
06:00 +15°C° 0 mm 0 mps 633 mmHg 93%
07:00 +18°C° 0 mm 0 mps 634 mmHg 86%
08:00 +20°C° 0 mm 0 mps 635 mmHg 79%
09:00 +22°C° 0 mm 0 mps 636 mmHg 72%
10:00 +25°C° 0.2 mm 1 mps 636 mmHg 67%
11:00 +26°C° 0.2 mm 1 mps 635 mmHg 63%
12:00 +27°C° 0.2 mm 2 mps 635 mmHg 58%
13:00 +26°C° 1.3 mm 2 mps 635 mmHg 63%
14:00 +25°C° 1.3 mm 2 mps 634 mmHg 67%
15:00 +25°C° 1.3 mm 2 mps 633 mmHg 72%
16:00 +24°C° 0.7 mm 2 mps 633 mmHg 76%
17:00 +23°C° 0.7 mm 2 mps 633 mmHg 81%
18:00 +21°C° 0.7 mm 2 mps 633 mmHg 85%
19:00 +20°C° 0.1 mm 2 mps 633 mmHg 89%
20:00 +20°C° 0.1 mm 1 mps 633 mmHg 94%
21:00 +18°C° 0.1 mm 1 mps 633 mmHg 98%
22:00 +18°C° 0 mm 1 mps 633 mmHg 97%
23:00 +18°C° 0 mm 1 mps 633 mmHg 97%

27 January, Wednesday

Time Temperature Precipitation Wind Pressure Humidity
00:00 +16°C° 0 mm 0 mps 634 mmHg 96%
01:00 +16°C° 0 mm 0 mps 633 mmHg 96%
02:00 +16°C° 0 mm 1 mps 632 mmHg 96%
03:00 +16°C° 0 mm 1 mps 632 mmHg 96%
04:00 +16°C° 0 mm 1 mps 632 mmHg 96%
05:00 +15°C° 0 mm 0 mps 632 mmHg 95%
06:00 +14°C° 0 mm 0 mps 632 mmHg 95%
07:00 +17°C° 0 mm 0 mps 633 mmHg 84%
08:00 +21°C° 0 mm 1 mps 634 mmHg 73%
09:00 +23°C° 0 mm 1 mps 635 mmHg 63%
10:00 +25°C° 0 mm 1 mps 635 mmHg 58%
11:00 +26°C° 0 mm 1 mps 635 mmHg 54%
12:00 +28°C° 0 mm 1 mps 635 mmHg 50%
13:00 +27°C° 0.3 mm 1 mps 635 mmHg 54%
14:00 +26°C° 0.3 mm 2 mps 634 mmHg 59%
15:00 +25°C° 0.3 mm 2 mps 633 mmHg 63%
16:00 +24°C° 1.2 mm 2 mps 633 mmHg 72%
17:00 +21°C° 1.2 mm 2 mps 633 mmHg 81%
18:00 +20°C° 1.2 mm 2 mps 632 mmHg 89%
19:00 +19°C° 1 mm 2 mps 632 mmHg 92%
20:00 +18°C° 1 mm 2 mps 633 mmHg 94%
21:00 +17°C° 1 mm 2 mps 633 mmHg 96%
22:00 +18°C° 0.1 mm 1 mps 633 mmHg 96%
23:00 +18°C° 0.1 mm 1 mps 633 mmHg 97%

28 January, Thursday

Time Temperature Precipitation Wind Pressure Humidity
00:00 +18°C° 0.1 mm 1 mps 632 mmHg 97%
01:00 +18°C° 0 mm 1 mps 632 mmHg 97%
02:00 +16°C° 0 mm 1 mps 632 mmHg 97%
03:00 +16°C° 0 mm 1 mps 631 mmHg 97%
04:00 +16°C° 0 mm 1 mps 631 mmHg 97%
05:00 +16°C° 0 mm 1 mps 632 mmHg 96%
06:00 +16°C° 0 mm 1 mps 632 mmHg 96%
07:00 +19°C° 0 mm 1 mps 633 mmHg 89%
08:00 +20°C° 0 mm 1 mps 634 mmHg 83%
09:00 +22°C° 0 mm 1 mps 634 mmHg 76%
10:00 +23°C° 0.4 mm 1 mps 634 mmHg 71%
11:00 +24°C° 0.4 mm 1 mps 634 mmHg 66%
12:00 +26°C° 0.4 mm 2 mps 634 mmHg 60%
13:00 +25°C° 2.5 mm 2 mps 633 mmHg 67%
14:00 +23°C° 2.5 mm 2 mps 632 mmHg 73%
15:00 +21°C° 2.5 mm 2 mps 632 mmHg 79%
16:00 +20°C° 1.8 mm 2 mps 632 mmHg 83%
17:00 +19°C° 1.8 mm 2 mps 632 mmHg 87%
18:00 +18°C° 1.8 mm 2 mps 632 mmHg 91%
19:00 +18°C° 1.7 mm 2 mps 632 mmHg 91%
20:00 +17°C° 1.7 mm 2 mps 632 mmHg 92%
21:00 +17°C° 1.7 mm 2 mps 632 mmHg 93%

29 January, Friday

Time Temperature Precipitation Wind Pressure Humidity
Show more